Regional Weather Roundup
Issued by NWS Columbia, SC

Home | Current Version | Previous Version | Text Only | Print | Product List | Glossary On
Versions: 1 2 3 4 5 6 7 8 9 10 11 12 13 14 15 16 17 18 19 20 21 22 23 24 25 26 27 28
000
ASUS42 KCAE 221210
RWRCAE
REGIONAL WEATHER ROUNDUP
NATIONAL WEATHER SERVICE COLUMBIA SC
700 AM EST SUN JAN 22 2017

NOTE: "FAIR" INDICATES FEW OR NO CLOUDS BELOW 12,000 FEET WITH NO
SIGNIFICANT WEATHER AND/OR OBSTRUCTIONS TO VISIBILITY.

NOT ALL STATIONS ARE QUALITY CONTROLLED BY THE NATIONAL
WEATHER SERVICE. USE DATA WITH CAUTION...ESPECIALLY
DEWPOINT OBSERVATIONS.

SCZ001>056-GAZ040-063>065-077-221300-
...UPSTATE SOUTH CAROLINA...

CITY           SKY/WX    TMP DP  RH WIND       PRES   REMARKS
ANDERSON       CLOUDY    56  55  97 E7        29.61F
6HR MIN TEMP:  56; 6HR MAX TEMP:  56; 6HR PCP:  0.15;

LIBERTY        CLOUDY    55  54  98 E6        29.61F
6HR MIN TEMP:  54; 6HR MAX TEMP:  55;

SPARTANBURG    LGT RAIN  54  52  94 SE6       29.65F
CLEMSON        CLOUDY    57  54  89 E3        29.62S
6HR MIN TEMP:  57; 6HR MAX TEMP:  57; 6HR PCP:  0.18;

GREENVILLE     CLOUDY    56  54  93 E8        29.63F
6HR MIN TEMP:  56; 6HR MAX TEMP:  56; 6HR PCP:  0.08;

GREENWOOD      RAIN      56  55  97 E8        29.63F
6HR MIN TEMP:  56; 6HR MAX TEMP:  57; 6HR PCP:  0.29;

GREER          LGT RAIN  54  53  97 E9        29.61F VSB 1
6HR MIN TEMP:  54; 6HR MAX TEMP:  55; 6HR PCP:  0.08;

ROCK HILL      LGT RAIN  55  55 100 CALM      29.69S FOG
6HR MIN TEMP:  55; 6HR MAX TEMP:  55; 6HR PCP:  0.05;

CHESTER        RAIN      54  54 100 CALM      29.70S
LAURENS        LGT RAIN  55  55 100 SE6       29.67F


...CENTRAL SOUTH CAROLINA...

CITY           SKY/WX    TMP DP  RH WIND       PRES   REMARKS
COLUMBIA APT   RAIN      60  58  92 NE3       29.68S FOG
6HR MIN TEMP:  60; 6HR MAX TEMP:  62; 6HR PCP:  0.67;

COLUMBIA OWENS HVY RAIN  60  58  92 VRB3      29.71R FOG
6HR MIN TEMP:  60; 6HR MAX TEMP:  62; 6HR PCP:  0.50;

MCENTIRE ANGB  HVY RAIN  59  59 100 NW6       29.71R FOG
                                      6HR PCP:  0.35;

ORANGEBURG     HVY RAIN  59  59 100 CALM      29.67F FOG
6HR MIN TEMP:  59; 6HR MAX TEMP:  60; 6HR PCP:  0.68;

SUMTER SHAW    RAIN      59  58  96 N3        29.67R FOG
6HR MIN TEMP:  59; 6HR MAX TEMP:  61; 6HR PCP:  0.22;

NEWBERRY       LGT RAIN  55  55 100 N6        29.70S
AIKEN          HVY RAIN  57  55  94 E7        29.68F
BARNWELL       LGT RAIN  61  61 100 VRB3G12   29.66R
MANNING        HVY RAIN  59  55  88 CALM      29.68R
CAMDEN         RAIN      59  57  94 W6        29.71R
LANCASTER      CLOUDY    57  57 100 SE5       29.70S FOG
WINNSBORO      RAIN      55  55 100 S5        29.70S


...EASTERN AND COASTAL SOUTH CAROLINA...

CITY           SKY/WX    TMP DP  RH WIND       PRES   REMARKS
MYRTLE BEACH   CLOUDY    61  55  82 W7        29.73R
N MYRTLE BCH   HVY RAIN  59  59 100 W5        29.71S FOG
6HR MIN TEMP:  58; 6HR MAX TEMP:  61; 6HR PCP:  0.02;

CONWAY         RAIN      57  57 100 NE6       29.70F
MARION         RAIN      57  55  94 W5        29.71R
HARTSVILLE     CLOUDY    55  55 100 CALM      29.69S
FLORENCE       RAIN      60  59  96 CALM      29.69F FOG
6HR MIN TEMP:  60; 6HR MAX TEMP:  62; 6HR PCP:  0.12;

DARLINGTON     RAIN      58  58 100 SW3       29.71R
6HR MIN TEMP:  58; 6HR MAX TEMP:  61; 6HR PCP:  0.13;

CHARLESTON APT LGT RAIN  62  60  93 SE5       29.67F
6HR MIN TEMP:  59; 6HR MAX TEMP:  63; 6HR PCP:  0.61;

MOUNT PLEASANT RAIN      63  61  94 CALM      29.68F VSB 1
WALTERBORO     LGT RAIN  61  59  94 E6        29.65S
BEAUFORT       TSTM      62  60  93 SE10      29.63F FOG
6HR MIN TEMP:  57; 6HR MAX TEMP:  64; 6HR PCP:  0.98;



...EASTERN GEORGIA...

CITY           SKY/WX    TMP DP  RH WIND       PRES   REMARKS
AUGUSTA BUSH F RAIN      61  59  93 E17       29.58F FOG
6HR MIN TEMP:  61; 6HR MAX TEMP:  63; 6HR PCP:  1.09;

AUGUSTA DANIEL LGT RAIN  61  57  87 E10G31    29.55F
6HR MIN TEMP:  60; 6HR MAX TEMP:  61; 6HR PCP:  1.18;

THOMSON        CLOUDY    60  60 100 CALM      29.64F
6HR MIN TEMP:  60; 6HR MAX TEMP:  62;

WASHINGTON     LGT RAIN  61  61 100 E6        29.59F
CLAXTON        CLOUDY   N/A N/A N/A CALM      29.61F
SYLVANIA       HVY RAIN N/A N/A N/A NE14G21   29.64S
STATESBORO     HVY RAIN  62  50  66 E3        29.62F
6HR MIN TEMP:  59; 6HR MAX TEMP:  63;

SAVANNAH       TSTM      62  59  90 MISG      29.74R FOG
6HR MIN TEMP:  61; 6HR MAX TEMP:  67; 6HR PCP:  1.84;



...SOUTHERN NORTH CAROLINA...

CITY           SKY/WX    TMP DP  RH WIND       PRES   REMARKS
CHARLOTTE      LGT RAIN  55  53  93 CALM      29.68F VSB 1
6HR MIN TEMP:  54; 6HR MAX TEMP:  55; 6HR PCP:  0.04;

MONROE         LGT RAIN  55  54  96 CALM      29.68F
6HR MIN TEMP:  55; 6HR MAX TEMP:  56; 6HR PCP:  0.04;

RUTHERFORDTON  RAIN      53  53 100 CALM      29.70R
ASHEVILLE      CLOUDY    52  49  89 E6        29.61F
6HR MIN TEMP:  52; 6HR MAX TEMP:  53; 6HR PCP:  0.06;


$$




USA.gov is the U.S. government's official web portal to all federal, state and local government web resources and services.